Weather History for KIKW - November, 2012

Change the Weather History Date:

Sunday, November 18, 2012

  Actual Average (KMBS) Record (KMBS)
Temperature  
Mean Temperature 37 °F 38 °F  
Max Temperature 49 °F 45 °F 57 °F (2003)
Min Temperature 25 °F 31 °F 15 °F (2014)
Degree Days  
Heating Degree Days 28    
Month to date heating degree days  
Since 1 July heating degree days  
Cooling Degree Days 0    
Month to date cooling degree days  
Year to date cooling degree days  
Moisture  
Dew Point 33 °F    
Average Humidity 95    
Maximum Humidity 100    
Minimum Humidity 71    
Precipitation  
Precipitation 0.00 in 0.10 in 1.30 in (2003)
Month to date precipitation 1.69  
Year to date precipitation 28.67  
Snow  
Snow 0.00 in - - ()
Month to date snowfall  
Since 1 July snowfall  
Since 1 September snowfall  
Snow Depth -    
Sea Level Pressure  
Sea Level Pressure 30.48 in    
Wind  
Wind Speed 1 mph (ENE)    
Max Wind Speed 8 mph    
Max Gust Speed -    
Visibility 2 miles    
Events Fog    
T = Trace of Precipitation, MM = Missing Value Source: NWS Daily Summary

Daily Weather History Graph

Daily Weather History Graph

Search for Another Location

Airport or City:

Trip Planner

Search our weather history database for the weather conditions in past years. The results will help you decide how hot, cold, wet, or windy it might be!

Date:

Astronomy

Nov. 18, 2012 Rise Set
Actual Time 7:35 AM EST 5:08 PM EST
Civil Twilight 7:04 AM EST 5:39 PM EST
Nautical Twilight 6:29 AM EST 6:14 PM EST
Astronomical Twilight 5:55 AM EST 6:48 PM EST
Moon 12:00 PM EST (11/18) 10:30 PM EST (11/18)
Length of Visible Light 10h 35m
Length of Day
9h 33m
Waxing Crescent, 30% of the Moon is Illuminated
Nov 18
Waxing Crescent
Nov 20
First Quarter
Nov 28
Full
Dec 6
Last Quarter
Dec 13
New

Hourly Weather History & Observations

Time (EST) Temp. Windchill Dew Point Humidity Pressure Visibility Wind Dir Wind Speed Gust Speed Precip Events Conditions
12:14 AM 28.9 °F - 28.9 °F 100% 30.53 in 2.5 mi Calm Calm - N/A   Clear
12:34 AM 28.8 °F - 28.8 °F 100% 30.53 in 1.8 mi Calm Calm - N/A   Mist
12:54 AM 28.4 °F - 28.4 °F 100% 30.53 in 2.0 mi Calm Calm - N/A   Clear
1:15 AM 28.2 °F - 28.2 °F 100% 30.53 in 2.0 mi Calm Calm - N/A   Clear
1:34 AM 26.4 °F - 26.2 °F 99% 30.53 in 1.8 mi Calm Calm - N/A   Scattered Clouds
1:54 AM 27.7 °F - 27.7 °F 100% 30.53 in 2.0 mi Calm Calm - N/A   Overcast
2:15 AM 27.1 °F - 27.0 °F 99% 30.53 in 2.5 mi Calm Calm - N/A   Scattered Clouds
2:34 AM 27.3 °F - 27.1 °F 99% 30.53 in 2.5 mi Calm Calm - N/A   Clear
2:54 AM 26.6 °F - 26.4 °F 99% 30.53 in 0.5 mi Calm Calm - N/A Fog Light Freezing Fog
3:14 AM 26.4 °F - 26.2 °F 99% 30.53 in 3.0 mi Calm Calm - N/A   Scattered Clouds
3:34 AM 26.2 °F - 25.9 °F 99% 30.52 in 3.0 mi Calm Calm - N/A   Clear
3:54 AM 26.6 °F - 26.1 °F 98% 30.52 in 4.0 mi Calm Calm - N/A   Clear
4:14 AM 26.6 °F - 26.1 °F 98% 30.52 in 4.0 mi Calm Calm - N/A   Clear
4:34 AM 25.0 °F - 24.3 °F 97% 30.51 in 2.5 mi Calm Calm - N/A   Clear
4:55 AM 26.4 °F - 26.1 °F 99% 30.51 in 3.0 mi Calm Calm - N/A   Clear
5:14 AM 25.7 °F - 25.5 °F 99% 30.51 in 2.5 mi Calm Calm - N/A   Clear
5:34 AM 25.7 °F - 25.3 °F 99% 30.51 in 3.0 mi Calm Calm - N/A   Clear
5:55 AM 25.7 °F - 25.3 °F 99% 30.52 in 4.0 mi Calm Calm - N/A   Clear
6:14 AM 25.5 °F - 25.0 °F 98% 30.51 in 4.0 mi Calm Calm - N/A   Clear
6:34 AM 25.7 °F - 25.2 °F 98% 30.51 in 4.0 mi Calm Calm - N/A   Clear
6:55 AM 25.5 °F - 24.8 °F 97% 30.52 in 5.0 mi Calm Calm - N/A   Clear
7:14 AM 25.0 °F - 24.4 °F 98% 30.53 in 4.0 mi Calm Calm - N/A   Clear
7:34 AM 25.3 °F - 24.4 °F 96% 30.53 in 5.0 mi Calm Calm - N/A   Mostly Cloudy
7:55 AM 27.9 °F - 27.1 °F 97% 30.53 in 4.0 mi Calm Calm - N/A   Overcast
8:14 AM 30.0 °F - 29.5 °F 98% 30.53 in 0.5 mi Calm Calm - N/A Fog Light Freezing Fog
8:34 AM 31.8 °F - 31.5 °F 99% 30.53 in 0.2 mi Calm Calm - N/A Fog Fog
8:55 AM 32.9 °F - 32.7 °F 99% 30.53 in 0.2 mi Calm Calm - N/A Fog Fog
9:14 AM 33.4 °F - 33.3 °F 99% 30.53 in 0.2 mi Calm Calm - N/A Fog Fog
9:34 AM 33.4 °F - 33.3 °F 99% 30.53 in 0.2 mi Calm Calm - N/A Fog Fog
9:55 AM 34.5 °F 31.6 °F 34.5 °F 100% 30.53 in 0.2 mi SE 3.5 mph - N/A Fog Fog
10:14 AM 34.9 °F - 34.7 °F 99% 30.53 in 0.2 mi Calm Calm - N/A Fog Fog
10:34 AM 35.2 °F - 35.2 °F 100% 30.52 in 0.2 mi Calm Calm - N/A Fog Fog
10:54 AM 36.3 °F - 36.3 °F 100% 30.53 in 0.2 mi Calm Calm - N/A Fog Fog
11:14 AM 37.6 °F 34.0 °F 37.4 °F 99% 30.52 in 0.2 mi SSE 4.6 mph - N/A Fog Fog
11:35 AM 39.0 °F - 38.8 °F 99% 30.52 in 1.8 mi Calm Calm - N/A   Overcast
11:54 AM 39.2 °F - 39.2 °F 100% 30.51 in 3.0 mi Calm Calm - N/A   Overcast
12:14 PM 40.6 °F 38.6 °F 40.1 °F 98% 30.50 in 3.0 mi ENE 3.5 mph - N/A   Overcast
12:35 PM 42.3 °F - 39.4 °F 90% 30.49 in 5.0 mi Calm Calm - N/A   Mostly Cloudy
12:54 PM 43.9 °F - 40.1 °F 87% 30.47 in 5.0 mi Calm Calm - N/A   Clear
1:14 PM 45.3 °F - 40.8 °F 84% 30.47 in 7.0 mi Calm Calm - N/A   Clear
1:34 PM 46.2 °F 45.0 °F 41.2 °F 83% 30.46 in 7.0 mi NE 3.5 mph - N/A   Clear
1:54 PM 47.1 °F - 40.8 °F 79% 30.46 in 7.0 mi East 3.5 mph - N/A   Clear
2:15 PM 48.2 °F - 39.6 °F 72% 30.45 in 7.0 mi ENE 3.5 mph - N/A   Clear
2:34 PM 49.1 °F - 39.9 °F 71% 30.45 in 7.0 mi ENE 4.6 mph - N/A   Clear
2:54 PM 49.1 °F - 39.9 °F 71% 30.44 in 7.0 mi NE 5.8 mph - N/A   Clear
3:15 PM 49.3 °F - 40.1 °F 71% 30.44 in 7.0 mi East 4.6 mph - N/A   Clear
3:34 PM 48.6 °F - 40.5 °F 74% 30.44 in 7.0 mi ENE 8.1 mph - N/A   Clear
3:55 PM 47.3 °F - 40.3 °F 77% 30.44 in 5.0 mi ENE 6.9 mph - N/A   Haze
4:14 PM 45.9 °F 43.6 °F 39.6 °F 79% 30.44 in 5.0 mi NE 4.6 mph - N/A   Haze
4:34 PM 44.6 °F 42.2 °F 39.2 °F 81% 30.44 in 5.0 mi NNE 4.6 mph - N/A   Haze
4:55 PM 42.3 °F 38.6 °F 38.3 °F 86% 30.44 in 3.0 mi NE 5.8 mph - N/A   Clear
5:14 PM 39.7 °F 35.6 °F 37.6 °F 92% 30.44 in 2.0 mi ENE 5.8 mph - N/A   Clear
5:34 PM 38.5 °F 34.1 °F 37.4 °F 96% 30.44 in 2.5 mi East 5.8 mph - N/A   Scattered Clouds
5:55 PM 38.7 °F 34.3 °F 38.1 °F 98% 30.44 in 0.2 mi East 5.8 mph - N/A Fog Fog
6:14 PM 38.5 °F 33.4 °F 38.3 °F 99% 30.44 in 0.2 mi ENE 6.9 mph - N/A Fog Fog
6:34 PM 38.5 °F 35.0 °F 38.3 °F 99% 30.44 in 0.2 mi ENE 4.6 mph - N/A Fog Fog
6:55 PM 37.4 °F 33.8 °F 37.2 °F 99% 30.44 in 0.5 mi East 4.6 mph - N/A Fog Fog
7:14 PM 36.7 °F 31.2 °F 36.5 °F 99% 30.45 in 0.2 mi ENE 6.9 mph - N/A Fog Fog
7:35 PM 35.8 °F 30.9 °F 35.8 °F 100% 30.44 in 0.2 mi ENE 5.8 mph - N/A Fog Fog
7:55 PM 35.8 °F 33.0 °F 35.8 °F 100% 30.44 in 0.2 mi East 3.5 mph - N/A Fog Fog
8:14 PM 35.6 °F 32.8 °F 35.2 °F 99% 30.44 in 0.2 mi East 3.5 mph - N/A Fog Fog
8:35 PM 34.9 °F - 34.9 °F 100% 30.44 in 0.2 mi Calm Calm - N/A Fog Fog
9:14 PM 33.8 °F - 33.8 °F 100% 30.43 in 0.2 mi Calm Calm - N/A Fog Fog
9:35 PM 33.1 °F - 33.1 °F 100% 30.43 in 0.2 mi Calm Calm - N/A Fog Fog
9:54 PM 32.4 °F - 32.4 °F 100% 30.42 in 0.2 mi Calm Calm - N/A Fog Fog
10:15 PM 32.4 °F - 32.4 °F 100% 30.42 in 0.5 mi Calm Calm - N/A Fog Fog
10:35 PM 31.6 °F - 31.6 °F 100% 30.42 in 0.2 mi Calm Calm - N/A Fog Light Freezing Fog
10:54 PM 30.0 °F - 30.0 °F 100% 30.42 in 0.2 mi Calm Calm - N/A Fog Light Freezing Fog
11:15 PM 29.7 °F - 29.7 °F 100% 30.42 in 1.2 mi Calm Calm - N/A   Overcast
11:35 PM 29.8 °F - 29.8 °F 100% 30.41 in 0.5 mi Calm Calm - N/A Fog Light Freezing Fog
11:54 PM 28.0 °F 24.2 °F 28.0 °F 100% 30.40 in 2.5 mi ENE 3.5 mph - N/A   Scattered Clouds